SVA741B OERK-EGLL

Flight info

Callsign SVA741B
Flight time N/A
Altitude 36000
Route IVONU2C IVONU Z710 GAS G662 NIMAR L550 NOVPA N697 MENLI L677 GESON/N0476F380 L677 CVO L617 TANSA UL613 KOR DCT DIMIS DCT VAKSU DCT MONFA/N0477F400 DCT SOTOV DCT XEBIX DCT USUDO DCT LIRSU DCT ARCKY DCT BUB L608 LOGAN LOGAN2H
Aircraft A333/H-SDE3GHIJ2J3J5M1RVWXY/LB2D1

Departure

Time 2026-05-07 08:43
Airport King Khalid International Airport (OERK)

Arrival

Time N/A
Airport London Heathrow Airport (EGLL)
Time Latitude Longitude Altitude Speed Heading
2026-05-07 08:18 24.95397 46.70880 2044 ft 0 kts 242°
2026-05-07 08:29 24.95405 46.70896 2036 ft 3 kts 242°
2026-05-07 08:29 24.95414 46.70914 2042 ft 3 kts 242°
2026-05-07 08:30 24.95422 46.70932 2041 ft 3 kts 242°
2026-05-07 08:30 24.95430 46.70951 2042 ft 3 kts 229°
2026-05-07 08:30 24.95445 46.70964 2042 ft 3 kts 184°
2026-05-07 08:30 24.95455 46.70965 2040 ft 0 kts 160°
2026-05-07 08:32 24.95452 46.70966 2040 ft 2 kts 158°
2026-05-07 08:32 24.95440 46.70972 2044 ft 4 kts 158°
2026-05-07 08:33 24.95404 46.70988 2045 ft 6 kts 153°
2026-05-07 08:33 24.95354 46.71030 2044 ft 5 kts 126°
2026-05-07 08:33 24.95344 46.71068 2042 ft 6 kts 91°
2026-05-07 08:33 24.95351 46.71099 2044 ft 7 kts 71°
2026-05-07 08:34 24.95385 46.71176 2046 ft 10 kts 59°
2026-05-07 08:34 24.95409 46.71225 2046 ft 11 kts 67°
2026-05-07 08:34 24.95394 46.71299 2042 ft 11 kts 130°
2026-05-07 08:34 24.95331 46.71352 2043 ft 12 kts 147°
2026-05-07 08:35 24.95254 46.71403 2043 ft 13 kts 153°
2026-05-07 08:35 24.95164 46.71455 2041 ft 15 kts 151°
2026-05-07 08:35 24.95081 46.71510 2046 ft 14 kts 147°
2026-05-07 08:35 24.94989 46.71570 2047 ft 16 kts 150°
2026-05-07 08:36 24.94884 46.71636 2048 ft 18 kts 150°
2026-05-07 08:36 24.94768 46.71710 2045 ft 20 kts 151°
2026-05-07 08:36 24.94644 46.71785 2048 ft 21 kts 149°
2026-05-07 08:36 24.94606 46.71810 2048 ft 0 kts 147°
2026-05-07 08:37 24.94605 46.71810 2048 ft 1 kts 147°
2026-05-07 08:38 24.94589 46.71822 2049 ft 4 kts 147°
2026-05-07 08:38 24.94553 46.71847 2042 ft 8 kts 147°
2026-05-07 08:38 24.94504 46.71879 2046 ft 9 kts 149°
2026-05-07 08:38 24.94440 46.71917 2049 ft 12 kts 151°
2026-05-07 08:39 24.94361 46.71966 2044 ft 14 kts 149°
2026-05-07 08:39 24.94309 46.72027 2051 ft 5 kts 98°
2026-05-07 08:39 24.94314 46.72065 2048 ft 5 kts 73°
2026-05-07 08:39 24.94328 46.72100 2050 ft 6 kts 63°
2026-05-07 08:40 24.94351 46.72148 2043 ft 8 kts 60°
2026-05-07 08:40 24.94384 46.72190 2050 ft 6 kts 40°
2026-05-07 08:40 24.94423 46.72214 2048 ft 6 kts 15°
2026-05-07 08:40 24.94467 46.72223 2048 ft 5 kts 359°
2026-05-07 08:41 24.94494 46.72213 2045 ft 4 kts 336°
2026-05-07 08:41 24.94507 46.72205 2046 ft 0 kts 330°
2026-05-07 08:41 24.94510 46.72203 2047 ft 6 kts 329°
2026-05-07 08:41 24.94723 46.72066 2047 ft 65 kts 330°
2026-05-07 08:42 24.95280 46.71717 2048 ft 118 kts 330°
2026-05-07 08:42 24.96134 46.71166 2044 ft 165 kts 332°
2026-05-07 08:42 24.97245 46.70523 2144 ft 190 kts 336°
2026-05-07 08:42 24.98535 46.70174 2569 ft 183 kts 349°
2026-05-07 08:43 24.99734 46.69861 3213 ft 175 kts 341°
2026-05-07 08:43 25.00802 46.69323 3762 ft 162 kts 341°
2026-05-07 08:43 25.01852 46.68830 4026 ft 172 kts 340°
2026-05-07 08:43 25.03026 46.68202 4114 ft 198 kts 337°
2026-05-07 08:44 25.04312 46.67505 4381 ft 218 kts 337°
2026-05-07 08:44 25.05717 46.66709 4747 ft 236 kts 334°
2026-05-07 08:44 25.07210 46.65794 4993 ft 257 kts 326°
2026-05-07 08:44 25.08453 46.64283 5227 ft 277 kts 295°
2026-05-07 08:45 25.08834 46.62183 5546 ft 286 kts 265°
2026-05-07 08:45 25.08567 46.59998 6036 ft 289 kts 257°
2026-05-07 08:45 25.08173 46.57801 6576 ft 293 kts 256°
2026-05-07 08:45 25.07795 46.55630 7202 ft 292 kts 259°
2026-05-07 08:46 25.07634 46.53388 7849 ft 293 kts 265°
2026-05-07 08:46 25.07573 46.51144 8493 ft 293 kts 266°
2026-05-07 08:46 25.07530 46.48885 9159 ft 294 kts 265°
2026-05-07 08:46 25.07487 46.46624 9838 ft 295 kts 265°
2026-05-07 08:47 25.07443 46.44334 10342 ft 303 kts 265°
2026-05-07 08:47 25.07392 46.41952 10585 ft 319 kts 265°
2026-05-07 08:47 25.07338 46.39446 10818 ft 334 kts 265°
2026-05-07 08:47 25.07283 46.36855 11039 ft 349 kts 265°
2026-05-07 08:48 25.07225 46.34124 11273 ft 362 kts 265°
2026-05-07 08:48 25.07165 46.31284 11501 ft 375 kts 265°
2026-05-07 08:48 25.07103 46.28384 11869 ft 382 kts 265°
2026-05-07 08:48 25.07039 46.25442 12375 ft 385 kts 265°
2026-05-07 08:49 25.06974 46.22478 12908 ft 387 kts 265°
2026-05-07 08:49 25.06908 46.19501 13490 ft 389 kts 265°
2026-05-07 08:49 25.06842 46.16505 14005 ft 391 kts 266°
2026-05-07 08:49 25.06766 46.13367 11991 ft 450 kts 266°
2026-05-07 08:50 25.06635 46.09857 12231 ft 446 kts 263°
2026-05-07 08:50 25.06277 46.06710 14123 ft 408 kts 263°
2026-05-07 08:50 25.05791 46.03395 11300 ft 480 kts 256°
2026-05-07 08:50 25.04907 45.99634 10186 ft 516 kts 251°
2026-05-07 08:51 25.03953 45.96497 14142 ft 340 kts 249°
2026-05-07 08:51 25.03275 45.94250 16775 ft 283 kts 254°
2026-05-07 08:51 25.03008 45.92265 17595 ft 250 kts 263°
2026-05-07 08:51 25.02943 45.90294 17679 ft 267 kts 265°
2026-05-07 08:52 25.03018 45.88170 17706 ft 288 kts 275°
2026-05-07 08:52 25.03419 45.85936 17835 ft 304 kts 279°
2026-05-07 08:52 25.03881 45.83613 18032 ft 316 kts 277°
2026-05-07 08:52 25.04230 45.81209 18246 ft 327 kts 275°
2026-05-07 08:53 25.04614 45.78685 18433 ft 340 kts 279°
2026-05-07 08:53 25.05058 45.76121 18603 ft 351 kts 275°
2026-05-07 08:53 25.05344 45.73401 18810 ft 360 kts 271°
2026-05-07 08:53 25.05553 45.70594 18992 ft 372 kts 274°
2026-05-07 08:54 25.05982 45.67727 19171 ft 385 kts 280°
2026-05-07 08:54 25.06789 45.64855 19322 ft 398 kts 288°
2026-05-07 08:54 25.07890 45.62008 19491 ft 409 kts 291°
2026-05-07 08:54 25.09124 45.59136 19669 ft 418 kts 292°
2026-05-07 08:55 25.10425 45.56243 19960 ft 422 kts 293°
2026-05-07 08:55 25.11728 45.53372 20321 ft 424 kts 293°
2026-05-07 08:55 25.13045 45.50451 20656 ft 427 kts 292°
2026-05-07 08:55 25.14400 45.47403 19162 ft 471 kts 292°
2026-05-07 08:56 25.15737 45.44343 21209 ft 416 kts 292°
2026-05-07 08:56 25.17011 45.41441 21601 ft 424 kts 292°
2026-05-07 08:56 25.18309 45.38467 20617 ft 443 kts 292°
2026-05-07 08:56 25.19679 45.35508 20715 ft 425 kts 294°
2026-05-07 08:57 25.20979 45.32629 21060 ft 415 kts 292°
2026-05-07 08:57 25.22224 45.29727 21217 ft 421 kts 291°
2026-05-07 08:57 25.23470 45.26764 21425 ft 428 kts 291°
2026-05-07 08:57 25.24730 45.23768 21754 ft 431 kts 291°
2026-05-07 08:58 25.26005 45.20762 22110 ft 433 kts 291°
2026-05-07 08:58 25.27299 45.17739 22468 ft 435 kts 291°
2026-05-07 08:58 25.28588 45.14744 22780 ft 438 kts 291°
2026-05-07 08:58 25.29903 45.11699 23147 ft 440 kts 291°
2026-05-07 08:59 25.31225 45.08645 23578 ft 440 kts 291°
2026-05-07 08:59 25.32547 45.05588 23893 ft 441 kts 291°
2026-05-07 08:59 25.33872 45.02519 24184 ft 443 kts 291°
2026-05-07 08:59 25.35200 44.99440 24490 ft 444 kts 291°
2026-05-07 09:00 25.36536 44.96339 24712 ft 448 kts 291°
2026-05-07 09:00 25.37881 44.93212 24978 ft 450 kts 291°
2026-05-07 09:00 25.39228 44.90083 25299 ft 451 kts 291°
2026-05-07 09:00 25.40578 44.86943 25598 ft 453 kts 291°
2026-05-07 09:01 25.41914 44.83834 25890 ft 454 kts 291°
2026-05-07 09:01 25.43271 44.80673 26182 ft 455 kts 291°
2026-05-07 09:01 25.44632 44.77500 26474 ft 457 kts 291°
2026-05-07 09:01 25.45998 44.74313 26770 ft 458 kts 291°
2026-05-07 09:02 25.47365 44.71122 27052 ft 459 kts 291°
2026-05-07 09:02 25.48736 44.67918 27332 ft 461 kts 291°
2026-05-07 09:02 25.50109 44.64707 27627 ft 462 kts 290°
2026-05-07 09:02 25.51510 44.61492 27922 ft 465 kts 293°
2026-05-07 09:03 25.53186 44.58402 28170 ft 472 kts 300°
2026-05-07 09:03 25.55259 44.55546 28406 ft 480 kts 308°
2026-05-07 09:03 25.57564 44.52929 28679 ft 483 kts 310°
2026-05-07 09:03 25.59992 44.50344 29021 ft 484 kts 311°
2026-05-07 09:04 25.62461 44.47806 29414 ft 483 kts 312°
2026-05-07 09:04 25.64941 44.45290 29783 ft 482 kts 312°
2026-05-07 09:04 25.67413 44.42783 30128 ft 481 kts 311°
2026-05-07 09:04 25.69871 44.40279 30487 ft 478 kts 311°
2026-05-07 09:05 25.72313 44.37780 30841 ft 476 kts 311°
2026-05-07 09:05 25.74738 44.35285 31162 ft 474 kts 310°
2026-05-07 09:05 25.77151 44.32794 31504 ft 472 kts 310°
2026-05-07 09:05 25.79514 44.30349 31838 ft 470 kts 310°
2026-05-07 09:06 25.81909 44.27867 32181 ft 468 kts 309°
2026-05-07 09:06 25.84291 44.25399 32531 ft 466 kts 309°
2026-05-07 09:06 25.86661 44.22942 32874 ft 465 kts 309°
2026-05-07 09:06 25.89024 44.20490 33165 ft 464 kts 309°
2026-05-07 09:07 25.91357 44.18068 33397 ft 464 kts 309°
2026-05-07 09:07 25.93714 44.15620 33699 ft 463 kts 309°
2026-05-07 09:07 25.96063 44.13181 34009 ft 461 kts 308°
2026-05-07 09:07 25.98401 44.10753 34287 ft 459 kts 308°
2026-05-07 09:08 26.00738 44.08323 34505 ft 458 kts 308°
2026-05-07 09:08 26.03065 44.05903 34718 ft 457 kts 308°
2026-05-07 09:08 26.05387 44.03484 34965 ft 457 kts 308°
2026-05-07 09:08 26.07709 44.01065 35178 ft 456 kts 308°
2026-05-07 09:09 26.10002 43.98673 35335 ft 457 kts 308°
2026-05-07 09:09 26.12318 43.96257 35549 ft 456 kts 308°
2026-05-07 09:09 26.14626 43.93849 35780 ft 454 kts 307°
2026-05-07 09:09 26.16940 43.91434 35969 ft 454 kts 307°
2026-05-07 09:10 26.21569 43.86595 35995 ft 456 kts 307°
2026-05-07 09:10 26.26162 43.81791 35996 ft 456 kts 307°
2026-05-07 09:11 26.30383 43.76625 35994 ft 444 kts 296°
2026-05-07 09:11 26.33750 43.70902 35994 ft 440 kts 293°
2026-05-07 09:12 26.36945 43.65079 35997 ft 440 kts 292°
2026-05-07 09:12 26.40110 43.59240 36011 ft 440 kts 292°
2026-05-07 09:13 26.43296 43.53385 36020 ft 441 kts 292°
2026-05-07 09:13 26.46495 43.47529 36035 ft 442 kts 292°
2026-05-07 09:14 26.49695 43.41672 36058 ft 442 kts 292°
2026-05-07 09:14 26.52877 43.35838 36048 ft 443 kts 292°
2026-05-07 09:15 26.56081 43.29954 36060 ft 444 kts 292°
2026-05-07 09:15 26.59297 43.24040 36061 ft 445 kts 292°
2026-05-07 09:16 26.62493 43.18158 36061 ft 445 kts 292°
2026-05-07 09:16 26.65709 43.12231 36062 ft 446 kts 292°
2026-05-07 09:17 26.68923 43.06301 36061 ft 446 kts 292°
2026-05-07 09:17 26.72121 43.00395 36070 ft 445 kts 292°
2026-05-07 09:18 26.75326 42.94467 36061 ft 444 kts 292°
2026-05-07 09:18 26.78528 42.88537 36061 ft 444 kts 292°
2026-05-07 09:19 26.81722 42.82610 36061 ft 444 kts 292°
2026-05-07 09:19 26.84919 42.76673 36059 ft 445 kts 292°
2026-05-07 09:20 26.88091 42.70774 36058 ft 444 kts 292°
2026-05-07 09:20 26.91280 42.64835 36059 ft 444 kts 292°
2026-05-07 09:21 26.93928 42.59899 36068 ft 444 kts 292°
2026-05-07 09:21 26.97651 42.52948 36056 ft 445 kts 292°
2026-05-07 09:22 27.00295 42.48006 36056 ft 445 kts 292°
2026-05-07 09:22 27.03474 42.42055 36057 ft 445 kts 291°
2026-05-07 09:23 27.06659 42.36085 36057 ft 445 kts 291°
2026-05-07 09:23 27.09821 42.30150 36057 ft 446 kts 291°
2026-05-07 09:24 27.13006 42.24161 36053 ft 446 kts 291°
2026-05-07 09:24 27.16191 42.18164 36053 ft 446 kts 291°
2026-05-07 09:25 27.19347 42.12211 36053 ft 447 kts 291°
2026-05-07 09:25 27.22529 42.06209 36044 ft 446 kts 291°
2026-05-07 09:26 27.25704 42.00207 36039 ft 446 kts 291°
2026-05-07 09:26 27.28874 41.94206 36038 ft 447 kts 291°
2026-05-07 09:27 27.32052 41.88181 36038 ft 447 kts 291°
2026-05-07 09:28 27.36789 41.79189 36037 ft 447 kts 291°
2026-05-07 09:28 27.39958 41.73161 36039 ft 447 kts 291°
2026-05-07 09:29 27.43613 41.67387 36047 ft 463 kts 304°
2026-05-07 09:29 27.48230 41.62284 36051 ft 469 kts 307°
2026-05-07 09:30 27.53054 41.57317 36041 ft 470 kts 308°
2026-05-07 09:30 27.57910 41.52359 36043 ft 470 kts 308°
2026-05-07 09:31 27.62736 41.47389 36031 ft 469 kts 307°
2026-05-07 09:31 27.67546 41.42405 36031 ft 469 kts 307°
2026-05-07 09:32 27.72322 41.37443 36034 ft 469 kts 307°